Weerstation Grootegast  Weerstation Grootegast


15 daagse weersverwachting Duisburg (DE)

  • Overzicht
  • Per uur
  • 15 dagen
  • Extra
  • Vergelijk
  • Kaarten
  • Dagkaart
  • Meer »
  • Info
  • Statistieken
  • Directe link
    Temp 6h Neerslag Wind  
 07:25     18:07    Daglengte: 10:42 Morgen
01:00
5.0 mm
5
07:00
16.6 mm
7
13:00
16.3 mm
6
19:00
19.3 mm
6
 07:23     18:09    Daglengte: 10:46 Donderdag 27 Feb
01:00
4.2 mm
4
07:00
3.2 mm
4
warningclass
13:00
12.8 mm
5
19:00
29.9 mm
4
warningclass
 07:21     18:11    Daglengte: 10:50 Vrijdag 28 Feb
01:00
27.4 mm
5
07:00
 
4
13:00
 
5
19:00
 
4
Locatie info
Region: Nordrhein-Westfalen
Latitude: 51.4315°N
Longitude: 6.7636°E
38 masl
Postcode: 47051
Temp/Neerslag /Baro Onweer/DauwpuntSneeuw
    Temp Baro 1h Neerslag Dauwpunt Wind UV BewolkingSneeuw  
 07:25     18:07    Daglengte: 10:42 Morgen
00:00
Voelt als: 1.3°
993.4 hPa 2.9 mm
48%
3.0°
4
Windvlaag: 2.6 m/s
85%1 cm
01:00
Voelt als: 0.4°
992.8 hPa 2.2 mm
82%
3.0°
5
Windvlaag: 3.9 m/s
91%1 cm
02:00
Voelt als: -0.8°
992.2 hPa 2.5 mm
82%
2.0°
6
Windvlaag: 3.3 m/s
80%3 cm
03:00
Voelt als: -1.6°
991.8 hPa 2.6 mm
82%
1.4°
7
Windvlaag: 2.5 m/s
81%3 cm
04:00
Voelt als: -1.8°
991.5 hPa 2.3 mm
82%
1.2°
7
Windvlaag: 3.6 m/s
86%3 cm
05:00
Voelt als: -2.1°
991.7 hPa 2.3 mm
82%
1.3°
7
Windvlaag: 3.7 m/s
76%3 cm
06:00
Voelt als: -2.6°
992.1 hPa 3.7 mm
82%
1.6°
6
Windvlaag: 3.1 m/s
89%3 cm
07:00
Voelt als: -3.1°
992.5 hPa 3.2 mm
82%
1.5°
7
Windvlaag: 3.9 m/s
90%3 cm
08:00
Voelt als: -2.9°
993.2 hPa 3.2 mm
82%
1.4°
6
Windvlaag: 3.9 m/s
90%3 cm
09:00
Voelt als: -2.8°
994.2 hPa 2.3 mm
82%
1.4°
6
Windvlaag: 2.6 m/s
90%3 cm
10:00
Voelt als: -2.0°
995.2 hPa 2.3 mm
82%
1.4°
7
Windvlaag: 1.8 m/s
87%3 cm
11:00
Voelt als: -0.7°
996.1 hPa 3.7 mm
82%
1.5°
6
Windvlaag: 1.5 m/s
86%3 cm
12:00
Voelt als: 0.4°
996.8 hPa 2.4 mm
82%
2.4°
6
Windvlaag: 0.9 m/s
78%2 cm
13:00
Voelt als: 0.9°
997.3 hPa 2.4 mm
82%
3.0°
6
Windvlaag: 1 m/s
84%2 cm
14:00
Voelt als: 1.1°
998.0 hPa 2.4 mm
82%
2.8°
6
Windvlaag: 1.5 m/s
62%2 cm
15:00
Voelt als: 1.0°
998.8 hPa 3.0 mm
82%
2.8°
6
Windvlaag: 0.9 m/s
79%3 cm
16:00
Voelt als: 0.5°
999.5 hPa 3.2 mm
82%
2.7°
6
Windvlaag: 1 m/s
72%3 cm
17:00
Voelt als: 0.4°
1000.5 hPa 3.5 mm
82%
2.3°
6
Windvlaag: 1.8 m/s
71%3 cm
18:00
Voelt als: -0.1°
1001.6 hPa 3.1 mm
82%
1.8°
6
Windvlaag: 1.4 m/s
52%3 cm
19:00
Voelt als: -0.5°
1002.8 hPa 4.2 mm
75%
1.2°
6
Windvlaag: 2 m/s
57%3 cm
20:00
Voelt als: -0.4°
1003.5 hPa
27%
1.5°
5
Windvlaag: 1.9 m/s
42%3 cm
21:00
Voelt als: -0.5°
1004.1 hPa 4.2 mm
61%
1.3°
5
Windvlaag: 1.7 m/s
27%3 cm
22:00
Voelt als: -0.5°
1004.7 hPa
27%
1.0°
4
Windvlaag: 1.7 m/s
13%3 cm
23:00
Voelt als: -1.2°
1005.0 hPa
32%
0.7°
4
Windvlaag: 1.7 m/s
12%3 cm
 07:23     18:09    Daglengte: 10:46 Donderdag 27 Feb
00:00
Voelt als: -2.0°
1005.2 hPa
24%
0.5°
5
Windvlaag: 2.2 m/s
31%3 cm
01:00
Voelt als: -2.1°
1005.2 hPa
61%
0.4°
4
Windvlaag: 3 m/s
33%3 cm
02:00
Voelt als: -2.4°
1005.4 hPa
62%
0.4°
4
Windvlaag: 2.7 m/s
47%3 cm
03:00
Voelt als: -2.5°
1005.3 hPa 3.2 mm
73%
0.1°
5
Windvlaag: 3.5 m/s
54%3 cm
04:00
Voelt als: -2.6°
1004.8 hPa
66%
0.1°
5
Windvlaag: 3.7 m/s
81%3 cm
05:00
Voelt als: -2.8°
1004.5 hPa
15%
-0.1°
4
Windvlaag: 3.6 m/s
57%3 cm
06:00
Voelt als: -2.8°
1004.2 hPa
14%
-0.3°
4
Windvlaag: 3.7 m/s
73%3 cm
07:00
Voelt als: -2.8°
1003.6 hPa
14%
-0.4°
4
Windvlaag: 3.7 m/s
88%3 cm
08:00
Voelt als: -2.9°
1002.9 hPa
14%
-0.5°
4
Windvlaag: 4.5 m/s
91%3 cm
09:00
Voelt als: -2.1°
1002.2 hPa
14%
-0.3°
5
Windvlaag: 5.1 m/s
91%3 cm
10:00
Voelt als: -1.1°
1001.3 hPa
14%
-0.1°
5
Windvlaag: 5.7 m/s
91%3 cm
11:00
Voelt als: -0.3°
999.8 hPa 4.4 mm
14%
0.1°
5
Windvlaag: 5.7 m/s
91%2 cm
12:00
Voelt als: -0.3°
998.3 hPa 4.7 mm
78%
0.5°
5
Windvlaag: 4.5 m/s
91%3 cm
13:00
Voelt als: -0.9°
996.6 hPa 3.8 mm
82%
0.5°
5
Windvlaag: 4.6 m/s
91%2 cm
14:00
Voelt als: -0.6°
994.5 hPa 3.8 mm
82%
1.0°
5
Windvlaag: 4.9 m/s
91%3 cm
15:00
Voelt als: -0.5°
992.9 hPa 4.2 mm
82%
1.2°
4
Windvlaag: 5.2 m/s
91%3 cm
16:00
Voelt als: -1.4°
992.0 hPa 5.0 mm
100%
1.7°
4
Windvlaag: 3.7 m/s
100%4 cm
17:00
Voelt als: -1.9°
992.3 hPa 5.6 mm
100%
1.4°
4
Windvlaag: 3.7 m/s
100%6 cm
18:00
Voelt als: -2.7°
993.8 hPa 5.8 mm
100%
1.3°
4
Windvlaag: -2.3 m/s
100%7 cm
19:00
Voelt als: -3.1°
996.1 hPa 5.6 mm
100%
1.0°
4
Windvlaag: -2.9 m/s
100%8 cm warningclass
20:00
Voelt als: -3.8°
997.8 hPa 7.5 mm
100%
1.0°
5
Windvlaag: -3.6 m/s
100%8 cm warningclass
21:00
Voelt als: -4.0°
999.6 hPa 7.4 mm
100%
0.8°
5
Windvlaag: -3.3 m/s
100%8 cm warningclass
22:00
Voelt als: -3.3°
1001.9 hPa 5.3 mm
100%
1.0°
5
Windvlaag: -1.1 m/s
98%8 cm
23:00
Voelt als: -2.8°
1003.8 hPa 7.2 mm
94%
0.7°
5
Windvlaag: 0.3 m/s
76%8 cm
 07:21     18:11    Daglengte: 10:50 Vrijdag 28 Feb
00:00
Voelt als: -2.6°
1005.4 hPa
44%
0.4°
5
Windvlaag: 1.2 m/s
39%8 cm
01:00
Voelt als: -2.9°
1006.7 hPa
87%
0.1°
5
Windvlaag: 0.9 m/s
30%8 cm
02:00
Voelt als: -3.2°
1008.0 hPa
85%
-0.3°
5
Windvlaag: 2.5 m/s
3%8 cm
03:00
Voelt als: -3.3°
1008.9 hPa
28%
-0.4°
4
Windvlaag: 3.6 m/s
11%8 cm
04:00
Voelt als: -3.2°
1009.7 hPa
26%
-0.4°
5
Windvlaag: 3.3 m/s
14%8 cm
05:00
Voelt als: -3.3°
1010.6 hPa
78%
-0.4°
4
Windvlaag: 3.2 m/s
22%8 cm
06:00
Voelt als: -3.4°
1011.6 hPa
41%
-0.5°
4
Windvlaag: 3.3 m/s
22%8 cm
07:00
Voelt als: -3.5°
1012.2 hPa
84%
-0.4°
4
Windvlaag: 3.5 m/s
34%8 cm
08:00
Voelt als: -3.4°
1013.0 hPa
38%
-0.2°
5
Windvlaag: 3.5 m/s
41%8 cm
09:00
Voelt als: -2.2°
1013.9 hPa
21%
0.4°
4
Windvlaag: 3.4 m/s
55%8 cm
10:00
Voelt als: -0.9°
1014.3 hPa
21%
0.9°
5
Windvlaag: 3.4 m/s
71%8 cm
11:00
Voelt als: 0.5°
1014.8 hPa
22%
1.5°
5
Windvlaag: 3.6 m/s
74%7 cm
12:00
Voelt als: 1.7°
1015.1 hPa
21%
1.4°
5
Windvlaag: 3.2 m/s
87%6 cm
13:00
Voelt als: 2.4°
1014.8 hPa
21%
0.7°
5
Windvlaag: 2.8 m/s
80%6 cm
14:00
Voelt als: 2.3°
1014.8 hPa
21%
0.6°
5
Windvlaag: 8.1 m/s
85%5 cm
15:00
Voelt als: 2.3°
1014.2 hPa
21%
0.7°
5
Windvlaag: 7.5 m/s
72%5 cm
16:00
Voelt als: 2.1°
1013.6 hPa
21%
0.6°
5
Windvlaag: 8 m/s
87%5 cm
17:00
Voelt als: 2.1°
1013.0 hPa
21%
0.4°
4
Windvlaag: 6.9 m/s
92%4 cm
18:00
Voelt als: 1.4°
1012.3 hPa
21%
0.2°
4
Windvlaag: 7.8 m/s
99%4 cm
19:00
Voelt als: 0.9°
1011.7 hPa
21%
0.1°
4
Windvlaag: 1.3 m/s
97%4 cm
20:00
Voelt als: 0.5°
1010.6 hPa
21%
0.4°
5
Windvlaag: 8 m/s
86%4 cm
21:00
Voelt als: 0.1°
1009.5 hPa
21%
0.5°
5
Windvlaag: 8 m/s
85%4 cm
22:00
Voelt als: -0.3°
1008.2 hPa
82%
0.6°
5
Windvlaag: 8.3 m/s
97%4 cm
23:00
Voelt als: -0.6°
1007.1 hPa 11.7 mm
100%
0.9°
6
Windvlaag: 8.7 m/s
99%4 cm
Temp/Neerslag /Baro Onweer/DauwpuntSneeuw
    Temp Baro Neerslag Dauwpunt Wind BewolkingSneeuw  
 07:25     18:07    Daglengte: 10:42 Morgen
01:00
Voelt als: 0.4°
992.8 hPa 5.0 mm 3.0°
5
91%1 cm
04:00
Voelt als: -1.8°
991.5 hPa 7.4 mm 1.2°
7
86%3 cm
07:00
Voelt als: -3.1°
992.5 hPa 9.2 mm 1.5°
7
90%3 cm
10:00
Voelt als: -2.0°
995.2 hPa 7.8 mm 1.4°
7
87%3 cm
13:00
Voelt als: 0.9°
997.3 hPa 8.5 mm 3.0°
6
84%2 cm
16:00
Voelt als: 0.5°
999.5 hPa 8.6 mm 2.7°
6
72%3 cm
19:00
Voelt als: -0.5°
1002.8 hPa 10.7 mm 1.2°
6
57%3 cm
22:00
Voelt als: -0.5°
1004.7 hPa 4.2 mm 1.0°
4
13%3 cm
 07:23     18:09    Daglengte: 10:46 Donderdag 27 Feb
01:00
Voelt als: -2.1°
1005.2 hPa   0.4°
4
33%3 cm
04:00
Voelt als: -2.6°
1004.8 hPa 3.2 mm 0.1°
5
81%3 cm
07:00
Voelt als: -2.8°
1003.6 hPa   -0.4°
4
88%3 cm
10:00
Voelt als: -1.1°
1001.3 hPa   -0.1°
5
91%3 cm
13:00
Voelt als: -0.9°
996.6 hPa 12.8 mm 0.5°
5
91%2 cm
16:00
Voelt als: -1.4°
992.0 hPa 12.9 mm 1.7°
4
100%4 cm
19:00
Voelt als: -3.1°
996.1 hPa 17.0 mm 1.0°
4
100%8 cm warningclass
22:00
Voelt als: -3.3°
1001.9 hPa 20.2 mm 1.0°
5
98%8 cm
 07:21     18:11    Daglengte: 10:50 Vrijdag 28 Feb
01:00
Voelt als: -2.9°
1006.7 hPa 7.2 mm 0.1°
5
30%8 cm
04:00
Voelt als: -3.2°
1009.7 hPa   -0.4°
5
14%8 cm
07:00
Voelt als: -3.5°
1012.2 hPa   -0.4°
4
34%8 cm
10:00
Voelt als: -0.9°
1014.3 hPa   0.9°
5
71%8 cm
13:00
Voelt als: 2.4°
1014.8 hPa   0.7°
5
80%6 cm
16:00
Voelt als: 2.1°
1013.6 hPa   0.6°
5
87%5 cm
19:00
Voelt als: 0.9°
1011.7 hPa   0.1°
4
97%4 cm
22:00
Voelt als: -0.3°
1008.2 hPa   0.6°
5
97%4 cm
 07:19     18:12    Daglengte: 10:53 Zaterdag 29 Feb
01:00
Voelt als: -1.3°
1004.6 hPa 36.6 mm 1.4°
7
100%4 cm
04:00
Voelt als: 1.3°
1002.1 hPa 48.3 mm 3.8°
6
92%
07:00
Voelt als: 2.8°
1000.3 hPa 49.0 mm 5.1°
6
92%
10:00
Voelt als: 6.0°
997.1 hPa 49.0 mm 6.4°
6
89%
13:00
12°
993.9 hPa 49.0 mm 7.4°
7
86%
16:00
10°
992.2 hPa 49.0 mm 7.1°
8
89%
19:00
Voelt als: 4.6°
990.9 hPa 51.2 mm 6.2°
8
92%
22:00
Voelt als: 2.0°
995.7 hPa 51.2 mm 3.7°
8
84%
 07:17     18:14    Daglengte: 10:57 Zondag 01 Maa
01:00
Voelt als: -0.7°
1000.3 hPa 51.2 mm 1.3°
7
76%
04:00
Voelt als: -1.3°
1002.0 hPa 51.2 mm 0.4°
7
50%
07:00
Voelt als: -2.0°
1003.6 hPa 51.2 mm -0.5°
6
24%
10:00
Voelt als: 1.5°
1003.8 hPa 51.2 mm 0.5°
7
51%
13:00
Voelt als: 5.0°
1004.0 hPa 51.3 mm 1.1°
7
78%
16:00
Voelt als: 4.1°
1002.7 hPa 52.0 mm -0.4°
7
39%
19:00
Voelt als: 3.0°
1001.4 hPa 55.2 mm -1.6°
6
0%
22:00
Voelt als: 2.1°
999.1 hPa 55.6 mm -0.3°
6
46%
 07:15     18:16    Daglengte: 11:01 Maandag 02 Maa
01:00
Voelt als: 1.2°
996.7 hPa 55.8 mm 0.6°
7
92%
04:00
Voelt als: 0.9°
995.5 hPa 55.8 mm 2.0°
6
91%
07:00
Voelt als: 0.7°
994.2 hPa 55.8 mm 3.3°
5
90%
10:00
Voelt als: 2.1°
994.7 hPa 56.8 mm 3.9°
6
90%
13:00
Voelt als: 3.7°
995.2 hPa 59.6 mm 4.5°
6
90%
16:00
Voelt als: 1.6°
997.6 hPa 62.7 mm 2.3°
4
46%
19:00
Voelt als: 0.1°
1000.2 hPa 62.8 mm 0.3°
3
2%
22:00
Voelt als: -0.8°
1002.6 hPa 62.8 mm -0.2°
2
11%
 07:12     18:18    Daglengte: 11:06 Dinsdag 03 Maa
01:00
Voelt als: -1.8°
1004.8 hPa 62.8 mm -0.8°
2
21% warningclass
04:00
Voelt als: -1.7°
1007.0 hPa 62.8 mm -0.2°
2
25% warningclass
07:00
Voelt als: -1.5°
1009.1 hPa 63.0 mm 0.4°
2
29%
10:00
Voelt als: 1.6°
1011.2 hPa 63.0 mm 0.6°
3
31%
13:00
Voelt als: 5.1°
1013.2 hPa 63.2 mm -0.4°
4
33%
16:00
Voelt als: 3.7°
1013.7 hPa 63.5 mm -0.2°
3
62%
19:00
Voelt als: 2.3°
1014.2 hPa 63.7 mm -0.2°
2
92%
22:00
Voelt als: 0.7°
1012.3 hPa   -0.9°
4
64%
 07:10     18:19    Daglengte: 11:09 Woensdag 04 Maa
01:00
Voelt als: -0.6°
1010.2 hPa 129.7 mm -1.3°
6
36%
07:00
Voelt als: -1.5°
1003.0 hPa 145.4 mm 1.5°
8
90%
13:00
10°
Voelt als: 6.6°
1002.4 hPa 148.9 mm 7.0°
6
78%
19:00
Voelt als: 4.1°
1004.1 hPa 154.9 mm 1.5°
4
81%
 07:08     18:21    Daglengte: 11:13 Donderdag 05 Maa
01:00
Voelt als: 3.2°
996.8 hPa 157.1 mm 4.6°
8
91%
07:00
Voelt als: -2.6°
1000.5 hPa 157.8 mm -0.3°
9
92%
13:00
Voelt als: 2.7°
1003.4 hPa 160.2 mm -1.6°
9
40%
19:00
Voelt als: 0.6°
1002.2 hPa 163.8 mm 2.4°
5
69%
 07:06     18:23    Daglengte: 11:17 Vrijdag 06 Maa
01:00
Voelt als: -1.1°
1001.9 hPa 164.9 mm 1.1°
5
53%
07:00
Voelt als: -1.9°
1000.9 hPa 166.8 mm 0.8°
7
90%
13:00
Voelt als: 2.7°
1016.8 hPa 169.4 mm 1.7°
6
1%
19:00
Voelt als: 0.7°
1004.5 hPa 0.7 mm 0.7°
3
69%
 07:04     18:25    Daglengte: 11:21 Zaterdag 07 Maa
01:00
Voelt als: -1.0°
1005.5 hPa 0.8 mm 0.1°
3
60%
07:00
Voelt als: -1.3°
1005.9 hPa 1.1 mm -0.3°
2
54%
13:00
Voelt als: 4.0°
1007.5 hPa 0.5 mm 0.9°
3
55%
19:00
Voelt als: 2.2°
1008.3 hPa 0.9 mm 0.6°
2
57%
 07:01     18:26    Daglengte: 11:25 Zondag 08 Maa
01:00
Voelt als: 1.3°
1010.5 hPa 0.6 mm -0.2°
1
48%
07:00
Voelt als: 0.5°
1011.6 hPa 0.4 mm -0.8°
1
50%
13:00
Voelt als: 4.9°
1012.1 hPa 0.7 mm 0.5°
1
59%
19:00
Voelt als: 3.8°
1012.6 hPa 0.8 mm 0.9°
0
64%
 06:59     18:28    Daglengte: 11:29 Maandag 09 Maa
01:00
Voelt als: 2.1°
1014.7 hPa 0.4 mm -0.1°
1
54%
07:00
Voelt als: 0.6°
1015.8 hPa 0.5 mm -0.6°
1
53%
13:00
Voelt als: 4.7°
1016.8 hPa 0.4 mm 0.4°
2
54%
19:00
Voelt als: 2.2°
1017.7 hPa 0.3 mm 0.9°
2
47%
 06:57     18:30    Daglengte: 11:33 Dinsdag 10 Maa
01:00
Voelt als: 0.7°
1019.2 hPa 0.2 mm 0.6°
2
39%
07:00
Voelt als: -0.6°
1020.5 hPa 0.5 mm -0.1°
2
48%
13:00
Voelt als: 3.9°
1021.7 hPa 0.3 mm 0.3°
3
51%
19:00
Voelt als: 1.8°
1022.2 hPa 0.4 mm 0.6°
3
61%
 06:55     18:31    Daglengte: 11:36 Woensdag 11 Maa
01:00
Voelt als: 0.0°
1023.4 hPa 0.3 mm 0.5°
2
50%
07:00
Voelt als: -0.4°
1023.5 hPa 0.2 mm 0.2°
2
52%
13:00
Voelt als: 4.3°
1023.6 hPa 0.4 mm 0.9°
3
60%
19:00
Voelt als: 2.3°
1023.7 hPa 0.6 mm 0.9°
3
61%
  CAPE Lifted Index Hail Supercell Tornado SRH 3km CL BTM PRES CL TOP PRES Swiss DWD icon SMHI TS
 07:25     18:07    Daglengte: 10:42 Morgen
00:00 0 J/kg 0.7 K 0 % 0 % 0 % 0 m²/s² 0 0 5.14 3
01:00 1 J/kg 0.9 K 0 % 0 % 0 % 0 m²/s² 0 0 1.5 80
02:00 0 J/kg 1.4 K 0 % 0 % 0 % 0 m²/s² 0 0 1.94 80
03:00 23 J/kg 1.2 K 0 % 0 % 0 % 0 m²/s² 0 0 2.7 80
04:00 5 J/kg 1.5 K 0 % 0 % 0 % 0 m²/s² 0 0 4.71 80
05:00 0 J/kg 1.0 K 0 % 0 % 0 % 0 m²/s² 0 0 4.33 61
06:00 4 J/kg 0.9 K 0 % 0 % 0 % 0 m²/s² 0 0 2.43 61
07:00 3 J/kg 0.7 K 0 % 0 % 0 % 0 m²/s² 0 0 1.27 80
08:00 3 J/kg 0.7 K 0 % 0 % 0 % 0 m²/s² 0 0 1.42 3
09:00 3 J/kg -0.2 K 0 % 0 % 0 % 0 m²/s² 0 0 0.52 80
10:00 5 J/kg -0.2 K 0 % 0 % 0 % 0 m²/s² 0 0 0.4 80
11:00 32 J/kg -0.1 K 0 % 0 % 0 % 0 m²/s² 0 0 1.19 80
12:00 426 J/kg -2.1 K 0 % 0 % 0 % 0 m²/s² 0 0 -0.75 80
13:00 453 J/kg -2.2 K 0 % 0 % 0 % 0 m²/s² 0 0 -0.55 80
14:00 18 J/kg 0.7 K 0 % 0 % 0 % 0 m²/s² 0 0 1.3 80
15:00 0 J/kg -0.3 K 0 % 0 % 0 % 0 m²/s² 0 0 0.39 80
16:00 12 J/kg -1.8 K 0 % 0 % 0 % 0 m²/s² 0 0 -1.44 3
17:00 323 J/kg -1.8 K 0 % 0 % 0 % 0 m²/s² 0 0 0.6 80
18:00 257 J/kg -1.5 K 0 % 0 % 0 % 0 m²/s² 0 0 1.47 80
19:00 167 J/kg -0.7 K 0 % 0 % 0 % 0 m²/s² 0 0 1.97 3
20:00 139 J/kg -0.6 K 0 % 0 % 0 % 0 m²/s² 0 0 2.67 3
21:00 61 J/kg -0.5 K 0 % 0 % 0 % 0 m²/s² 0 0 3.04 2
22:00 50 J/kg 0.3 K 0 % 0 % 0 % 0 m²/s² 0 0 4.32 1
23:00 126 J/kg 0.5 K 0 % 0 % 0 % 0 m²/s² 0 0 3.68 1
 07:23     18:09    Daglengte: 10:46 Donderdag 27 Feb
00:00 2 J/kg 2.0 K 0 % 0 % 0 % 0 m²/s² 0 0 2.57 2
01:00 0 J/kg 4.1 K 0 % 0 % 0 % 0 m²/s² 0 0 6.2 2
02:00 55 J/kg 4.7 K 0 % 0 % 0 % 0 m²/s² 0 0 7.55 2
03:00 40 J/kg 5.9 K 0 % 0 % 0 % 0 m²/s² 0 0 8.84 85
04:00 0 J/kg 7.4 K 0 % 0 % 0 % 0 m²/s² 0 0 11.03 3
05:00 0 J/kg 7.8 K 0 % 0 % 0 % 0 m²/s² 0 0 10.95 3
06:00 0 J/kg 8.1 K 0 % 0 % 0 % 0 m²/s² 0 0 10.74 3
07:00 0 J/kg 9.2 K 0 % 0 % 0 % 0 m²/s² 0 0 10.88 3
08:00 0 J/kg 8.5 K 0 % 0 % 0 % 0 m²/s² 0 0 9.16 3
09:00 0 J/kg 9.1 K 0 % 0 % 0 % 0 m²/s² 0 0 9.76 3
10:00 0 J/kg 9.5 K 0 % 0 % 0 % 0 m²/s² 0 0 10.13 3
11:00 0 J/kg 9.5 K 0 % 0 % 0 % 0 m²/s² 0 0 10.07 3
12:00 0 J/kg 9.6 K 0 % 0 % 0 % 0 m²/s² 0 0 10.17 3
13:00 1 J/kg 9.7 K 0 % 0 % 0 % 0 m²/s² 0 0 10.24 61
14:00 0 J/kg 9.5 K 0 % 0 % 0 % 0 m²/s² 0 0 10.01 61
15:00 0 J/kg 9.5 K 0 % 0 % 0 % 0 m²/s² 0 0 10.01 61
16:00 0 J/kg 8.9 K 0 % 0 % 0 % 0 m²/s² 0 0 9.44 61
17:00 0 J/kg 7.3 K 0 % 0 % 0 % 0 m²/s² 0 0 7.87 61
18:00 1 J/kg 5.3 K 0 % 0 % 0 % 0 m²/s² 0 0 5.87 61
19:00 0 J/kg 3.7 K 0 % 0 % 0 % 0 m²/s² 0 0 4.27 61
20:00 0 J/kg 2.5 K 0 % 0 % 0 % 0 m²/s² 0 0 3.1 61
21:00 0 J/kg 1.2 K 0 % 0 % 0 % 0 m²/s² 0 0 1.77 61
22:00 2 J/kg 0.5 K 0 % 0 % 0 % 0 m²/s² 0 0 1.07 71
23:00 0 J/kg 1.6 K 0 % 0 % 0 % 0 m²/s² 0 0 3.85 61
 07:21     18:11    Daglengte: 10:50 Vrijdag 28 Feb
00:00 4 J/kg 2.1 K 0 % 0 % 0 % 0 m²/s² 0 0 5.55 3
01:00 0 J/kg 3.0 K 0 % 0 % 0 % 0 m²/s² 0 0 6.99 3
02:00 0 J/kg 3.5 K 0 % 0 % 0 % 0 m²/s² 0 0 7.4 1
03:00 0 J/kg 4.3 K 0 % 0 % 0 % 0 m²/s² 0 0 7.39 2
04:00 0 J/kg 5.9 K 0 % 0 % 0 % 0 m²/s² 0 0 12.2 2
05:00 0 J/kg 7.3 K 0 % 0 % 0 % 0 m²/s² 0 0 12.85 2
06:00 0 J/kg 7.7 K 0 % 0 % 0 % 0 m²/s² 0 0 13.28 1
07:00 0 J/kg 8.4 K 0 % 0 % 0 % 0 m²/s² 0 0 14.58 2
08:00 0 J/kg 8.6 K 0 % 0 % 0 % 0 m²/s² 0 0 14.81 2
09:00 0 J/kg 9.1 K 0 % 0 % 0 % 0 m²/s² 0 0 15.13 2
10:00 0 J/kg 9.9 K 0 % 0 % 0 % 0 m²/s² 0 0 15.57 2
11:00 0 J/kg 10.5 K 0 % 0 % 0 % 0 m²/s² 0 0 15.57 2
12:00 0 J/kg 10.3 K 0 % 0 % 0 % 0 m²/s² 0 0 14.53 2
13:00 4 J/kg 10.4 K 0 % 0 % 0 % 0 m²/s² 0 0 14.45 2
14:00 22 J/kg 10.9 K 0 % 0 % 0 % 0 m²/s² 0 0 13.93 2
15:00 13 J/kg 11.3 K 0 % 0 % 0 % 0 m²/s² 0 0 13.55 2
16:00 4 J/kg 11.9 K 0 % 0 % 0 % 0 m²/s² 0 0 13.16 3
17:00 5 J/kg 12.1 K 0 % 0 % 0 % 0 m²/s² 0 0 12.76 3
18:00 23 J/kg 12.0 K 0 % 0 % 0 % 0 m²/s² 0 0 12.51 3
19:00 37 J/kg 12.3 K 0 % 0 % 0 % 0 m²/s² 0 0 12.81 3
20:00 8 J/kg 13.1 K 0 % 0 % 0 % 0 m²/s² 0 0 13.58 3
21:00 0 J/kg 13.3 K 0 % 0 % 0 % 0 m²/s² 0 0 13.69 3
22:00 0 J/kg 12.3 K 0 % 0 % 0 % 0 m²/s² 0 0 12.75 3
23:00 0 J/kg 11.0 K 0 % 0 % 0 % 0 m²/s² 0 0 11.36 61
Temp Baro Wind Neerslag
  EWN Forecast EWN WRFDA DWD ICON FMI HIRLAM MET Norway GFS
 07:25     18:07    Daglengte: 10:42 Morgen
01:00 4.3° 992.8 hPa 5.0 m/s 5.0 mm 1.7° 990.0 hPa 5.6 m/s 19.2 mm 4.8° 994.0 hPa 4.2 m/s 0.8 mm 5.0° 991.0 hPa 4.5 m/s 0.0 mm 3.2° 993.1 hPa 5.1 m/s 3.2° 993.3 hPa 6.4 m/s
04:00 3.3° 991.5 hPa 7.5 m/s 7.4 mm 2.6° 987.6 hPa 5.9 m/s 39.0 mm 3.3° 992.3 hPa 5.4 m/s 2.5 mm 4.0° 990.0 hPa 9.6 m/s 0.0 mm 2.8° 991.8 hPa 7.5 m/s 3.0° 991.5 hPa 5.6 m/s
07:00 2.0° 992.5 hPa 6.5 m/s 9.2 mm 2.0° 987.9 hPa 4.0 m/s 39.3 mm 2.6° 993.4 hPa 5.6 m/s 1.9 mm 2.1° 989.0 hPa 9.2 m/s 0.0 mm 1.4° 993.1 hPa 6.4 m/s 2.0° 991.8 hPa 6.1 m/s
10:00 3.0° 995.2 hPa 6.9 m/s 7.8 mm 2.6° 991.4 hPa 5.9 m/s 40.0 mm 3.5° 996.3 hPa 4.5 m/s 0.6 mm 3.1° 990.3 hPa 11.1 m/s 0.0 mm 3.0° 996.0 hPa 6.9 m/s 4.2° 994.5 hPa 5.4 m/s
13:00 5.0° 997.3 hPa 6.2 m/s 8.5 mm 5.1° 994.1 hPa 6.6 m/s 41.9 mm 5.3° 997.6 hPa 4.6 m/s 1.0 mm 5.7° 994.5 hPa 7.9 m/s 0.0 mm 5.0° 998.1 hPa 5.6 m/s 6.4° 998.1 hPa 6.5 m/s
16:00 4.8° 999.5 hPa 6.5 m/s 8.6 mm 2.9° 996.1 hPa 2.6 m/s 51.5 mm 5.9° 999.4 hPa 5.2 m/s 0.9 mm 6.1° 997.0 hPa 9.0 m/s 0.0 mm 4.0° 1000.3 hPa 6.7 m/s 6.0° 1000.3 hPa 6.2 m/s
19:00 3.9° 1002.8 hPa 5.9 m/s 10.7 mm 4.4° 999.3 hPa 6.0 m/s 60.3 mm 4.3° 1002.8 hPa 4.4 m/s 0.8 mm 5.4° 1000.5 hPa 9.0 m/s 0.0 mm 3.0° 1003.6 hPa 5.5 m/s 4.1° 1003.1 hPa 5.2 m/s
22:00 3.2° 1004.7 hPa 4.3 m/s 4.2 mm 3.4° 1000.9 hPa 4.0 m/s 60.3 mm 3.3° 1004.6 hPa 3.6 m/s 0.0 mm 4.4° 1003.8 hPa 6.9 m/s 0.0 mm 2.4° 1005.2 hPa 3.8 m/s 3.6° 1004.8 hPa 4.2 m/s
 07:23     18:09    Daglengte: 10:46 Donderdag 27 Feb
01:00 2.0° 1005.2 hPa 4.3 m/s 0.0 mm 2.0° 1002.3 hPa 4.8 m/s 61.9 mm 2.5° 1005.1 hPa 3.3 m/s 0.0 mm 2.4° 1004.2 hPa 5.3 m/s 0.0 mm 1.8° 1005.5 hPa 4.3 m/s 3.3° 1006.1 hPa 4.8 m/s
04:00 1.6° 1004.8 hPa 4.6 m/s 3.2 mm 1.9° 1001.4 hPa 5.8 m/s 63.3 mm 2.4° 1005.5 hPa 3.4 m/s 0.1 mm 2.2° 1003.6 hPa 6.4 m/s 0.0 mm 1.0° 1005.1 hPa 4.4 m/s 2.7° 1005.6 hPa 4.6 m/s
07:00 1.1° 1003.6 hPa 3.9 m/s 0.0 mm 1.4° 1000.1 hPa 3.8 m/s 63.4 mm 1.6° 1004.9 hPa 2.8 m/s 0.0 mm 1.7° 1003.3 hPa 5.1 m/s 0.0 mm 0.6° 1003.7 hPa 3.8 m/s 1.8° 1004.8 hPa 4.1 m/s
10:00 2.9° 1001.3 hPa 4.7 m/s 0.0 mm 3.0° 997.2 hPa 5.4 m/s 63.6 mm 3.4° 1003.3 hPa 3.2 m/s 0.0 mm 4.1° 1002.0 hPa 5.0 m/s 0.0 mm 2.7° 1001.5 hPa 4.2 m/s 2.4° 1001.7 hPa 4.7 m/s
13:00 3.2° 996.6 hPa 5.0 m/s 12.8 mm 3.0° 992.3 hPa 5.7 m/s 66.5 mm 4.7° 999.6 hPa 4.0 m/s 0.2 mm 6.5° 998.8 hPa 4.3 m/s 0.0 mm 2.5° 997.0 hPa 4.9 m/s 2.2° 995.3 hPa 5.7 m/s
16:00 2.2° 992.0 hPa 3.7 m/s 12.9 mm 0.8° 986.7 hPa 4.3 m/s 75.3 mm 4.7° 995.6 hPa 3.6 m/s 0.6 mm 2.1° 993.1 hPa 3.0 m/s 1.0° 986.1 hPa 5.6 m/s
19:00 1.1° 996.1 hPa 4.3 m/s 17.0 mm 0.6° 991.7 hPa 5.1 m/s 93.3 mm 2.4° 997.1 hPa 1.5 m/s 1.6 mm 1.1° 997.1 hPa 4.3 m/s 0.9° 990.0 hPa 7.8 m/s
22:00 1.4° 1001.9 hPa 5.2 m/s 20.2 mm 2.2° 998.1 hPa 6.8 m/s 101.3 mm 0.5° 1000.9 hPa 2.7 m/s 2.8 mm 1.6° 1003.4 hPa 5.5 m/s 1.1° 1000.6 hPa 5.6 m/s
 07:21     18:11    Daglengte: 10:50 Vrijdag 28 Feb
01:00 1.5° 1006.7 hPa 4.8 m/s 7.2 mm 1.2° 1002.7 hPa 6.1 m/s 103.2 mm 3.0° 1005.6 hPa 5.0 m/s 0.1 mm 1.4° 1008.4 hPa 4.8 m/s 1.3° 1006.6 hPa 4.2 m/s
04:00 1.2° 1009.7 hPa 4.7 m/s 0.0 mm 1.8° 1005.0 hPa 6.6 m/s 103.2 mm 2.3° 1009.4 hPa 3.1 m/s 0.0 mm 0.7° 1010.9 hPa 4.6 m/s 0.4° 1009.7 hPa 4.1 m/s
07:00 0.9° 1012.2 hPa 4.4 m/s 0.0 mm 0.2° 1007.4 hPa 5.1 m/s 103.2 mm 1.5° 1012.2 hPa 3.5 m/s 0.0 mm 0.9° 1013.5 hPa 4.4 m/s 0.5° 1012.4 hPa 4.6 m/s
10:00 3.1° 1014.3 hPa 4.6 m/s 0.0 mm 2.7° 1010.1 hPa 5.9 m/s 103.2 mm 3.7° 1014.4 hPa 3.8 m/s 0.0 mm 3.2° 1015.9 hPa 4.6 m/s 1.7° 1014.3 hPa 4.3 m/s
13:00 5.8° 1014.8 hPa 4.7 m/s 0.0 mm 5.3° 1011.1 hPa 5.7 m/s 103.2 mm 6.8° 1014.8 hPa 3.8 m/s 0.0 mm 5.7° 1016.5 hPa 4.8 m/s 3.1° 1014.7 hPa 4.0 m/s
16:00 5.5° 1013.6 hPa 4.5 m/s 0.0 mm 5.7° 1010.6 hPa 4.9 m/s 103.2 mm 7.3° 1013.1 hPa 3.3 m/s 0.0 mm 4.8° 1014.6 hPa 4.7 m/s 3.8° 1013.3 hPa 2.6 m/s
19:00 4.2° 1011.7 hPa 4.1 m/s 0.0 mm 4.2° 1009.7 hPa 3.1 m/s 103.2 mm 5.7° 1010.7 hPa 3.6 m/s 0.0 mm 3.8° 1012.8 hPa 4.6 m/s 3.2° 1012.0 hPa 2.9 m/s
22:00 3.8° 1008.2 hPa 5.2 m/s 0.0 mm 3.5° 1007.2 hPa 3.4 m/s 103.3 mm 4.9° 1007.0 hPa 4.9 m/s 0.0 mm 3.6° 1009.2 hPa 5.9 m/s 2.4° 1009.6 hPa 4.3 m/s
 07:19     18:12    Daglengte: 10:53 Zaterdag 29 Feb
01:00 3.6° 1004.6 hPa 6.9 m/s 36.6 mm 3.1° 1004.5 hPa 5.8 m/s 104.0 mm 4.3° 1001.4 hPa 6.9 m/s 2.8 mm 3.5° 1005.7 hPa 7.2 m/s 3.5° 1006.0 hPa 3.7 m/s
04:00 5.3° 1002.1 hPa 6.1 m/s 48.3 mm 5.4° 1002.0 hPa 6.2 m/s 5.2° 1002.8 hPa 4.5 m/s 48.3 mm
07:00 6.3° 1000.3 hPa 5.6 m/s 49.0 mm 6.3° 1000.2 hPa 5.7 m/s 6.9° 1000.9 hPa 4.1 m/s 49.0 mm
10:00 9.2° 997.1 hPa 6.4 m/s 49.0 mm 9.2° 997.0 hPa 6.6 m/s 8.7° 999.3 hPa 5.3 m/s 49.0 mm
13:00 12.1° 993.9 hPa 7.3 m/s 49.0 mm 12.1° 993.7 hPa 7.4 m/s 12.0° 995.7 hPa 6.5 m/s 49.0 mm
16:00 10.5° 992.2 hPa 7.5 m/s 49.0 mm 10.3° 992.2 hPa 7.7 m/s 11.8° 991.7 hPa 5.5 m/s 49.0 mm
19:00 8.4° 990.9 hPa 8.2 m/s 51.2 mm 8.6° 990.7 hPa 8.0 m/s 6.5° 993.0 hPa 9.9 m/s 51.2 mm
22:00 6.3° 995.7 hPa 7.6 m/s 51.2 mm 6.3° 995.5 hPa 7.6 m/s 5.8° 997.3 hPa 7.6 m/s 51.2 mm
 07:17     18:14    Daglengte: 10:57 Zondag 01 Maa
01:00 4.1° 1000.3 hPa 7.2 m/s 51.2 mm 4.1° 1000.4 hPa 7.2 m/s 4.6° 998.8 hPa 7.1 m/s 51.2 mm
04:00 3.5° 1002.0 hPa 6.7 m/s 51.2 mm 3.4° 1002.2 hPa 6.8 m/s 3.9° 999.7 hPa 6.6 m/s 51.2 mm
07:00 2.9° 1003.6 hPa 6.4 m/s 51.2 mm 2.8° 1004.0 hPa 6.3 m/s 3.6° 999.4 hPa 7.0 m/s 51.2 mm
10:00 5.8° 1003.8 hPa 6.9 m/s 51.2 mm 5.8° 1004.2 hPa 6.8 m/s 5.3° 999.1 hPa 7.8 m/s 51.2 mm
13:00 8.6° 1004.0 hPa 7.4 m/s 51.3 mm 8.8° 1004.5 hPa 7.4 m/s 6.1° 998.5 hPa 7.1 m/s 51.3 mm
16:00 7.7° 1002.7 hPa 6.8 m/s 52.0 mm 7.8° 1003.1 hPa 6.8 m/s 6.6° 997.5 hPa 6.2 m/s 52.0 mm
19:00 6.6° 1001.4 hPa 6.0 m/s 55.2 mm 6.8° 1001.8 hPa 6.2 m/s 4.9° 997.4 hPa 4.2 m/s 55.2 mm
22:00 6.1° 999.1 hPa 6.4 m/s 55.6 mm 6.2° 999.2 hPa 6.7 m/s 5.0° 997.7 hPa 3.8 m/s 55.6 mm
 07:15     18:16    Daglengte: 11:01 Maandag 02 Maa
01:00 5.5° 996.7 hPa 6.8 m/s 55.8 mm 5.6° 996.6 hPa 7.1 m/s 4.4° 997.9 hPa 4.1 m/s 55.8 mm
04:00 5.0° 995.5 hPa 6.0 m/s 55.8 mm 5.1° 995.2 hPa 6.2 m/s 3.5° 998.8 hPa 3.9 m/s 55.8 mm
07:00 4.5° 994.2 hPa 5.1 m/s 55.8 mm 4.6° 993.9 hPa 5.2 m/s 3.6° 998.0 hPa 3.7 m/s 55.8 mm
10:00 5.8° 994.7 hPa 5.6 m/s 56.8 mm 5.9° 994.6 hPa 5.6 m/s 5.2° 995.8 hPa 5.6 m/s 56.8 mm
13:00 7.1° 995.2 hPa 5.7 m/s 59.6 mm 7.2° 995.4 hPa 5.9 m/s 6.3° 993.5 hPa 4.0 m/s 59.6 mm
16:00 5.0° 997.6 hPa 4.5 m/s 62.7 mm 5.0° 997.9 hPa 4.2 m/s 5.9° 994.0 hPa 6.8 m/s 62.7 mm
19:00 2.9° 1000.2 hPa 2.8 m/s 62.8 mm 2.7° 1000.4 hPa 2.6 m/s 5.0° 997.6 hPa 4.8 m/s 62.8 mm
22:00 1.8° 1002.6 hPa 2.5 m/s 62.8 mm 1.7° 1002.6 hPa 2.4 m/s 3.3° 1001.6 hPa 3.4 m/s 62.8 mm
 07:12     18:18    Daglengte: 11:06 Dinsdag 03 Maa
01:00 0.9° 1004.8 hPa 2.3 m/s 62.8 mm 0.7° 1004.9 hPa 2.2 m/s 2.6° 1003.9 hPa 3.2 m/s 62.8 mm
04:00 1.0° 1007.0 hPa 2.4 m/s 62.8 mm 0.9° 1007.1 hPa 2.2 m/s 2.4° 1005.3 hPa 3.5 m/s 62.8 mm
07:00 1.2° 1009.1 hPa 2.4 m/s 63.0 mm 1.1° 1009.3 hPa 2.3 m/s 2.7° 1006.9 hPa 3.9 m/s 63.0 mm
10:00 4.4° 1011.2 hPa 3.3 m/s 63.0 mm 4.4° 1011.5 hPa 3.2 m/s 4.9° 1008.3 hPa 4.0 m/s 63.0 mm
13:00 7.7° 1013.2 hPa 4.3 m/s 63.2 mm 7.7° 1013.6 hPa 4.2 m/s 7.9° 1008.7 hPa 5.0 m/s 63.2 mm
16:00 6.2° 1013.7 hPa 3.4 m/s 63.5 mm 6.0° 1014.2 hPa 3.3 m/s 8.5° 1007.4 hPa 4.5 m/s 63.5 mm
19:00 4.5° 1014.2 hPa 2.5 m/s 63.7 mm 4.3° 1014.9 hPa 2.4 m/s 6.4° 1006.2 hPa 3.3 m/s 63.7 mm
22:00 4.2° 1012.3 hPa 4.2 m/s 63.7 mm 4.0° 1013.0 hPa 4.2 m/s 6.1° 1004.2 hPa 4.9 m/s 63.7 mm
 07:10     18:19    Daglengte: 11:09 Woensdag 04 Maa
01:00 3.8° 1010.2 hPa 6.0 m/s 66.0 mm 3.7° 1011.2 hPa 5.9 m/s 4.8° 999.4 hPa 7.0 m/s 66.1 mm
07:00 3.7° 1003.0 hPa 8.0 m/s 73.4 mm 3.3° 1003.8 hPa 8.2 m/s 7.8° 994.1 hPa 5.3 m/s 73.4 mm
13:00 9.5° 1002.4 hPa 6.2 m/s 75.3 mm 9.6° 1003.2 hPa 6.2 m/s 8.5° 993.8 hPa 5.8 m/s 75.3 mm
19:00 7.0° 1004.1 hPa 4.3 m/s 77.6 mm 7.0° 1004.7 hPa 4.1 m/s 6.5° 998.0 hPa 6.6 m/s 77.6 mm
 07:08     18:21    Daglengte: 11:13 Donderdag 05 Maa
01:00 7.3° 996.8 hPa 7.8 m/s 78.9 mm 7.5° 996.3 hPa 7.8 m/s 4.9° 1002.5 hPa 7.3 m/s 78.9 mm
07:00 3.2° 1000.5 hPa 9.3 m/s 78.9 mm 3.2° 999.8 hPa 9.6 m/s 3.3° 1007.8 hPa 6.4 m/s 78.9 mm
13:00 7.2° 1003.4 hPa 8.9 m/s 80.7 mm 7.2° 1002.6 hPa 9.1 m/s 6.7° 1012.2 hPa 7.1 m/s 80.7 mm
19:00 4.4° 1002.2 hPa 5.0 m/s 82.1 mm 4.4° 1001.1 hPa 5.1 m/s 4.5° 1014.7 hPa 4.1 m/s 82.1 mm
 07:06     18:23    Daglengte: 11:17 Vrijdag 06 Maa
01:00 3.2° 1001.9 hPa 5.5 m/s 82.7 mm 3.2° 1000.6 hPa 5.6 m/s 3.3° 1015.8 hPa 4.1 m/s 82.7 mm
07:00 3.1° 1000.9 hPa 6.8 m/s 83.7 mm 3.1° 999.6 hPa 7.0 m/s 2.9° 1015.6 hPa 4.5 m/s 83.7 mm
13:00 6.3° 1016.8 hPa 5.7 m/s 85.5 mm 6.3° 1016.8 hPa 5.7 m/s 85.5 mm
19:00 3.3° 1004.5 hPa 2.7 m/s 0.7 mm
 07:04     18:25    Daglengte: 11:21 Zaterdag 07 Maa
01:00 1.9° 1005.5 hPa 2.7 m/s 0.8 mm
07:00 1.4° 1005.9 hPa 2.4 m/s 1.1 mm
13:00 6.1° 1007.5 hPa 2.8 m/s 0.5 mm
19:00 3.7° 1008.3 hPa 1.8 m/s 0.9 mm
 07:01     18:26    Daglengte: 11:25 Zondag 08 Maa
01:00 2.0° 1010.5 hPa 1.1 m/s 0.6 mm
07:00 1.3° 1011.6 hPa 1.0 m/s 0.4 mm
13:00 5.7° 1012.1 hPa 1.4 m/s 0.7 mm
19:00 3.8° 1012.6 hPa 0.4 m/s 0.8 mm
 06:59     18:28    Daglengte: 11:29 Maandag 09 Maa
01:00 2.1° 1014.7 hPa 0.5 m/s 0.4 mm
07:00 1.3° 1015.8 hPa 1.0 m/s 0.5 mm
13:00 6.3° 1016.8 hPa 2.2 m/s 0.4 mm
19:00 4.0° 1017.7 hPa 2.0 m/s 0.3 mm
 06:57     18:30    Daglengte: 11:33 Dinsdag 10 Maa
01:00 2.4° 1019.2 hPa 1.8 m/s 0.2 mm
07:00 1.7° 1020.5 hPa 2.1 m/s 0.5 mm
13:00 6.1° 1021.7 hPa 2.9 m/s 0.3 mm
19:00 4.1° 1022.2 hPa 2.6 m/s 0.4 mm
 06:55     18:31    Daglengte: 11:36 Woensdag 11 Maa
01:00 2.5° 1023.4 hPa 2.4 m/s 0.3 mm
07:00 2.1° 1023.5 hPa 2.5 m/s 0.2 mm
13:00 6.6° 1023.6 hPa 3.1 m/s 0.4 mm
19:00 4.5° 1023.7 hPa 2.6 m/s 0.6 mm
FMI Hirlam - 7.5 km EWN WRFDA - 12 km DWD ICON - 7 km GFS - 25 km Basiskaart






























































Updatetijd (Europe/Amsterdam) Resolutie Lengte Stap
FMI Hirlam 18:15, 00:15, 06:15, 12:15 7.5 km 49h 1h
EWN WRFDA 20:15, 02:15, 08:15, 14:15 12 km 73h 1h
DWD ICON 22:45, 04:45, 10:45, 16:45 7 km 75h 1h
GFS 18:45, 00:45, 06:45, 12:45 25 km 237h 3h
30+ mm
25-30 mm
20-25 mm
15-20 mm
10-15 mm
6-10 mm
4-6 mm
2-4 mm
1-2 mm
0.5-1 mm
0.2-0.5 mm
0.1-0.2 mm
30+ mm
25-30 mm
20-25 mm
15-20 mm
10-15 mm
6-10 mm
4-6 mm
2-4 mm
1-2 mm
0.5-1 mm
0.2-0.5 mm
0.1-0.2 mm
Sneeuwval
Natte sneeuw
Hagel
Vorst
30+ mm
25-30 mm
20-25 mm
15-20 mm
10-15 mm
6-10 mm
4-6 mm
2-4 mm
1-2 mm
0.5-1 mm
0.2-0.5 mm
0.1-0.2 mm
Sneeuwval
Natte sneeuw
Hagel
Vorst
Onweer
50 mm
40 mm
30 mm
26 mm
22 mm
18 mm
14 mm
10 mm
9 mm
8 mm
7 mm
6 mm
5 mm
4.5 mm
4 mm
3.5 mm
3 mm
2.5 mm
2 mm
1.5 mm
1 mm
0.8 mm
0.6 mm
0.4 mm
0.2 mm
0.05 mm
35°
30°
25°
20°
15°
10°
-5°
-10°
-15°
-20°
-25°
-30°
-35°
33> m/s
29 m/s
25 m/s
21 m/s
17 m/s
14 m/s
11 m/s
8 m/s
5 m/s
3 m/s
0 m/s
2600 J/kg
2400 J/kg
2200 J/kg
2000 J/kg
1800 J/kg
1600 J/kg
1400 J/kg
1200 J/kg
1000 J/kg
800 J/kg
600 J/kg
400 J/kg
200 J/kg
70 dBZ
65 dBZ
60 dBZ
55 dBZ
50 dBZ
45 dBZ
40 dBZ
35 dBZ
30 dBZ
25 dBZ
20 dBZ
15 dBZ
10 dBZ
5 dBZ
-1 K
-2 K
-3 K
-4 K
-5 K
-6 K
-7 K
-8 K
-9 K
950 m²/s²
900 m²/s²
850 m²/s²
800 m²/s²
750 m²/s²
700 m²/s²
650 m²/s²
600 m²/s²
550 m²/s²
500 m²/s²
450 m²/s²
400 m²/s²
350 m²/s²
300 m²/s²
250 m²/s²
200 m²/s²
150 m²/s²
100 m²/s²
46 m/s
44 m/s
42 m/s
40 m/s
38 m/s
36 m/s
34 m/s
32 m/s
30 m/s
28 m/s
26 m/s
24 m/s
22 m/s
20 m/s
16 m/s
12 m/s
8 m/s
4 m/s
30 m/s
28 m/s
26 m/s
24 m/s
22 m/s
20 m/s
18 m/s
16 m/s
14 m/s
12 m/s
10 m/s
8 m/s
6 m/s
4 m/s
2 m/s
3.0
2.8
2.6
2.4
2.2
2.0
1.8
1.6
1.4
1.2
1.0
0.8
0.6
0.4
0.2
15
14
13
12
11
10
9
8
7
6
5
4
3
2
1
90%
80%
70%
60%
50%
40%
30%
20%
10%
42
40
38
36
34
32
30
28
26
24
22
20
18
16
14
12
90+ cm
80-90 cm
70-80 cm
60-70 cm
50-60 cm
40-50 cm
30-40 cm
20-30 cm
10-20 cm
1-10 cm
Sneeuwval
Natte sneeuw
Regen
>120 mm
115 mm
110 mm
105 mm
100 mm
95 mm
90 mm
85 mm
80 mm
75 mm
70 mm
65 mm
60 mm
55 mm
50 mm
45 mm
45 mm
40 mm
35 mm
30 mm
25 mm
20 mm
15 mm
10 mm
5 mm
0.1 mm
960 hPa
880 hPa
800 hPa
720 hPa
640 hPa
560 hPa
584 gpdm
568 gpdm
552 gpdm
536 gpdm
520 gpdm
504 gpdm
488 gpdm
Extreem zwaar Noodweer Kans op onweer
15% 15% 5% 50% 15%

Dag




Kaart






35°
30°
25°
20°
15°
10°
-5°
-10°
-15°
-20°